Location: Ay?beleni
(36.6500°N, 30.3000°E)
Time: 04:18:34
(UTC+00:00)

Cosmos 371 Rocket - Pass Details

Date: 16 October 2021
Orbit: 684 x 699 km, 74.0° (Epoch: 08 December)

Event Time Altitude Azimuth Distance (km) Brightness Sun altitude
Rises 17:42:43 0° 212° (SSW) 3,046 6.9 -29.1°
Reaches altitude 10° 17:45:06 10° 219° (SW) 2,136 6.1 -29.6°
Maximum altitude 17:49:42 45° 292° (WNW) 943 4.3 -30.5°
Enters shadow 17:50:11 44° 309° (NW) 965 4.3 -30.6°
